Location: eljas
(40.1958°N, 6.8661°W)
Time: 12:50:23
(UTC+02:00)

Amateur Radio Satellites - All Passes

Search period start: 24 July 2017 12:20
Search period end: 25 July 2017 12:20
Location: eljas, 40.1958°N, 6.8661°W

Satellite Date Start Highest point End Downlink Frequencies (MHz)
Time Altitude Azimuth
PRISM 24 Jul 12:21:08 12:24:48 32° 262° (W) 12:28:32 437.425
FO-29 24 Jul 12:27:00 12:33:34 32° 267° (W) 12:40:26 435.910
Oscar 11 24 Jul 12:30:57 12:33:34 16° 295° (WNW) 12:36:10 .
DUCHIFAT 1 24 Jul 12:39:30 12:42:24 18° 66° (ENE) 12:45:18 145.980
POLYITAN 1 24 Jul 12:39:41 12:43:03 23° 68° (ENE) 12:46:23 437.675
AIST 2D 24 Jul 12:40:01 12:43:22 45° 74° (ENE) 12:46:42 435.315
EO-88 24 Jul 12:43:21 12:46:55 53° 285° (WNW) 12:50:27 145.990 - 145.960
TIGRISAT 24 Jul 12:46:56 12:50:18 20° 266° (W) 12:53:39 435.000
QB50P2 24 Jul 12:52:04 12:55:55 33° 71° (ENE) 12:59:46 145.880/145.840
LO-87 24 Jul 12:52:05 12:54:49 20° 95° (E) 12:57:32 145.935 - 145.965
EO-79 24 Jul 13:04:20 13:08:21 42° 72° (ENE) 13:12:23 145.935-145.965
NANOSAT C BR1 24 Jul 13:05:12 13:09:09 38° 72° (ENE) 13:13:06 145.865
NO-84 24 Jul 13:08:42 13:11:42 68° 135° (SE) 13:14:56 435.350 FM
BUGSAT 1 24 Jul 13:14:01 13:15:56 13° 64° (ENE) 13:17:50 437.445
ESTCUBE 1 24 Jul 13:24:51 13:28:57 33° 97° (E) 13:33:02 437.505/2401.250
DELFI C3 24 Jul 13:35:28 13:36:22 11° 296° (WNW) 13:37:16 145.870
SPROUT 24 Jul 13:41:07 13:42:27 11° 90° (E) 13:43:46 437.525
Oscar 19 24 Jul 14:12:53 14:17:05 26° 66° (ENE) 14:21:17 437.125/150
DUCHIFAT 1 24 Jul 14:13:48 14:17:46 38° 262° (W) 14:21:44 145.980
POLYITAN 1 24 Jul 14:14:53 14:18:39 30° 263° (W) 14:22:25 437.675
VELOX 1 24 Jul 14:15:44 14:19:25 25° 95° (E) 14:23:05 145.980
BEESAT 3 24 Jul 14:20:59 14:24:44 41° 116° (ESE) 14:28:32 437.485
LO-87 24 Jul 14:25:18 14:28:11 23° 290° (WNW) 14:31:02 145.935 - 145.965
QB50P2 24 Jul 14:28:37 14:31:45 20° 266° (W) 14:34:55 145.880/145.840
Gurwin Techsat 1B 24 Jul 14:30:08 14:34:25 25° 65° (ENE) 14:38:42 435.225
AO-85 24 Jul 14:31:17 14:35:13 56° 119° (ESE) 14:39:04 145.980
EO-79 24 Jul 14:41:39 14:44:16 16° 267° (W) 14:46:56 145.935-145.965
NANOSAT C BR1 24 Jul 14:42:09 14:44:59 17° 267° (W) 14:47:50 145.865
BUGSAT 1 24 Jul 14:46:36 14:50:47 57° 259° (W) 14:54:59 437.445
NO-84 24 Jul 14:47:25 14:49:32 16° 335° (NNW) 14:51:46 435.350 FM
PCSat 24 Jul 14:51:10 14:54:44 17° 44° (NE) 14:58:18 145.827
BEESAT 2 24 Jul 14:58:26 15:02:03 34° 115° (ESE) 15:05:44 435.950
ESTCUBE 1 24 Jul 15:02:00 15:05:34 23° 293° (WNW) 15:09:08 437.505/2401.250
UKube-1 24 Jul 15:10:05 15:13:10 19° 94° (E) 15:16:14 .
SPROUT 24 Jul 15:14:30 15:18:42 59° 286° (WNW) 15:22:52 437.525
50 SAT 24 Jul 15:37:09 15:40:36 81° 283° (WNW) 15:44:01 437.505
AO-7 24 Jul 15:50:13 15:57:29 35° 59° (ENE) 16:04:47 .
SO-50 24 Jul 15:50:49 15:53:31 15° 41° (NE) 15:56:13 436.795
Oscar 19 24 Jul 15:51:32 15:56:13 36° 262° (W) 16:00:57 437.125/150
VELOX 1 24 Jul 15:51:57 15:55:50 29° 291° (WNW) 15:59:41 145.980
BEESAT 3 24 Jul 15:59:31 16:02:29 19° 314° (NW) 16:05:28 437.485
DX 1 24 Jul 16:00:16 16:04:40 77° 285° (WNW) 16:09:02 434.975-435.025
ITAMSAT 1 24 Jul 16:02:23 16:06:21 22° 64° (ENE) 16:10:19 435.822/435.867
Gurwin Techsat 1B 24 Jul 16:09:07 16:14:07 41° 262° (W) 16:19:08 435.225
AO-85 24 Jul 16:13:38 16:15:55 15° 316° (NW) 16:18:12 145.980
BEESAT 24 Jul 16:21:06 16:22:31 11° 90° (E) 16:23:54 436.000
RS-15 24 Jul 16:29:08 16:39:16 33° 103° (ESE) 16:49:32 29.354- 29.394
ITUPSAT 1 24 Jul 16:32:29 16:35:12 15° 92° (E) 16:37:54 437.325
PCSat 24 Jul 16:33:21 16:38:48 81° 243° (WSW) 16:44:12 145.827
BEESAT 2 24 Jul 16:36:42 16:39:53 22° 313° (NW) 16:43:06 435.950
UKube-1 24 Jul 16:45:18 16:49:17 37° 290° (WNW) 16:53:16 .
MOZHAYETS 4 24 Jul 17:28:06 17:32:28 44° 99° (E) 17:36:48
SO-50 24 Jul 17:29:57 17:34:30 78° 238° (WSW) 17:39:04 436.795
O/OREOS (USA 219) 24 Jul 17:31:24 17:35:52 73° 291° (WNW) 17:40:22 437.305
ITAMSAT 1 24 Jul 17:40:28 17:45:28 46° 261° (W) 17:50:31 435.822/435.867
AO-7 24 Jul 17:41:45 17:49:52 55° 257° (WSW) 17:58:05 .
BEESAT 24 Jul 17:56:01 18:00:46 72° 286° (WNW) 18:05:29 436.000
CUBESAT XI-V 24 Jul 18:00:50 18:04:12 19° 93° (E) 18:07:33 437.345
NO-84 24 Jul 18:05:55 18:07:19 12° 18° (NNE) 18:08:45 435.350 FM
ITUPSAT 1 24 Jul 18:08:41 18:13:20 54° 288° (WNW) 18:17:57 437.325
KKS-1 24 Jul 18:17:28 18:19:54 14° 92° (E) 18:22:20 437.445
XW-2D 24 Jul 18:33:56 18:34:17 10° 64° (ENE) 18:34:38 145.860 - 145.880
RS-15 24 Jul 18:38:31 18:50:43 74° 305° (NW) 19:03:09 29.354- 29.394
DOVE 4 24 Jul 18:39:01 18:43:34 41° 70° (ENE) 18:48:20 437.250
XW-2B 24 Jul 18:42:33 18:44:14 13° 66° (ENE) 18:45:56 145.730 - 145.750
STARS 24 Jul 18:50:07 18:52:12 13° 91° (E) 18:54:15 437.465
XW-2C 24 Jul 18:58:37 19:01:23 20° 69° (ENE) 19:04:10 145.795 - 145.815
MOZHAYETS 4 24 Jul 19:06:11 19:09:16 18° 295° (WNW) 19:12:20
YUBILEINY 24 Jul 19:08:34 19:13:58 18° 78° (ENE) 19:19:22 435.215
NUDT-PHONESAT 24 Jul 19:09:59 19:12:42 20° 69° (ENE) 19:15:25 437.300
LilacSat-2 24 Jul 19:20:06 19:23:37 38° 73° (ENE) 19:27:09 437.200
CUTE-I 24 Jul 19:21:25 19:26:25 42° 69° (ENE) 19:31:27 437.470
KAITUO 1B 24 Jul 19:22:30 19:25:43 28° 71° (ENE) 19:28:55 145.475/437.950
XW-2F 24 Jul 19:36:11 19:39:50 55° 75° (ENE) 19:43:29 145.980 - 146.000
CUBESAT XI-V 24 Jul 19:37:19 19:41:42 41° 289° (WNW) 19:46:05 437.345
NO-84 24 Jul 19:41:57 19:45:37 40° 37° (NE) 19:49:33 435.350 FM
HO-68 24 Jul 19:45:50 19:51:53 31° 62° (ENE) 19:57:57 435.675
KKS-1 24 Jul 19:52:23 19:56:44 51° 288° (WNW) 20:01:03 437.445
XW-2D 24 Jul 20:04:17 20:07:58 56° 261° (W) 20:11:40 145.860 - 145.880
CUBEBUG 2 24 Jul 20:06:47 20:09:06 14° 64° (ENE) 20:11:25 437.445
XW-2B 24 Jul 20:14:27 20:18:02 42° 261° (W) 20:21:37 145.730 - 145.750
DOVE 4 24 Jul 20:17:40 20:21:23 22° 268° (W) 20:25:17 437.250
STARS 24 Jul 20:24:32 20:28:51 54° 287° (WNW) 20:33:07 437.465
STRAND 1 24 Jul 20:31:31 20:31:59 10° 88° (E) 20:32:28 437.568
XW-2C 24 Jul 20:32:15 20:35:25 25° 264° (W) 20:38:35 145.795 - 145.815
CUTE 1.7 + AOD 2 24 Jul 20:33:48 20:37:46 43° 73° (ENE) 20:41:46 437.475
XW-2A 24 Jul 20:40:24 20:43:18 27° 72° (ENE) 20:46:13 145.665 - 145.685
NUDT-PHONESAT 24 Jul 20:43:23 20:46:27 25° 264° (W) 20:49:31 437.300
SEEDS 24 Jul 20:47:42 20:51:34 39° 72° (ENE) 20:55:27 437.485
RS-15 24 Jul 20:55:37 21:05:50 29° 333° (NNW) 21:16:03 29.354- 29.394
LilacSat-2 24 Jul 20:56:12 20:58:03 13° 268° (W) 20:59:54 437.200
KAITUO 1B 24 Jul 20:57:17 20:59:45 17° 266° (W) 21:02:12 145.475/437.950
YUBILEINY 24 Jul 21:00:39 21:09:30 88° 274° (W) 21:18:24 435.215
CUTE-I 24 Jul 21:02:15 21:06:34 25° 266° (W) 21:10:55 437.470
UWE-3 24 Jul 21:04:36 21:08:36 31° 70° (ENE) 21:12:33 435.000/436.395/437.385
NO-84 24 Jul 21:19:36 21:23:02 27° 232° (SW) 21:26:38 435.350 FM
ZACube-1 24 Jul 21:20:33 21:24:11 25° 69° (ENE) 21:27:46 437.345
Tancredo 1 24 Jul 21:25:16 21:27:39 23° 134° (SE) 21:30:04 437.200
HO-68 24 Jul 21:32:17 21:39:15 53° 259° (W) 21:46:15 435.675
AAUSAT CUBESAT 2 24 Jul 21:33:25 21:37:27 59° 75° (ENE) 21:41:31 437.432
nSIGHT-1 24 Jul 21:36:02 21:37:10 11° 129° (SE) 21:38:19 .
CUBEBUG 2 24 Jul 21:40:31 21:45:11 64° 259° (W) 21:49:48 437.445
Oscar 11 24 Jul 21:47:49 21:51:38 32° 71° (ENE) 21:55:29 .
AO-73 24 Jul 22:00:21 22:04:44 61° 75° (ENE) 22:09:01 145.935
STRAND 1 24 Jul 22:06:39 22:11:48 86° 285° (WNW) 22:16:54 437.568
CUTE 1.7 + AOD 2 24 Jul 22:11:28 22:13:49 15° 268° (W) 22:16:11 437.475
XW-2A 24 Jul 22:14:06 22:16:04 15° 266° (W) 22:18:02 145.665 - 145.685
SEEDS 24 Jul 22:24:49 22:27:24 16° 268° (W) 22:30:00 437.485
ISS 24 Jul 22:27:19 22:30:21 38° 137° (SE) 22:33:24 437.550
BEESAT 3 24 Jul 22:38:26 22:41:39 22° 48° (NE) 22:44:48 437.485
UWE-3 24 Jul 22:41:17 22:45:01 24° 265° (W) 22:48:43 435.000/436.395/437.385
DELFI C3 24 Jul 22:42:56 22:46:24 31° 71° (ENE) 22:49:54 145.870
ZACube-1 24 Jul 22:56:27 23:00:20 29° 264° (W) 23:04:09 437.345
Tancredo 1 24 Jul 23:00:16 23:02:57 32° 330° (NNW) 23:05:40 437.200
YUBILEINY 24 Jul 23:01:58 23:07:37 18° 298° (WNW) 23:13:19 435.215
AO-85 24 Jul 23:02:14 23:06:13 41° 53° (NE) 23:10:28 145.980
nSIGHT-1 24 Jul 23:09:56 23:13:09 72° 324° (NW) 23:16:22 .
AAUSAT CUBESAT 2 24 Jul 23:12:41 23:13:16 10° 270° (W) 23:13:51 437.432
RS-15 24 Jul 23:15:17 23:24:10 22° 9° (N) 23:32:51 29.354- 29.394
BEESAT 2 24 Jul 23:16:42 23:19:46 20° 47° (NE) 23:22:49 435.950
EO-88 24 Jul 23:20:02 23:23:35 53° 75° (ENE) 23:27:08 145.990 - 145.960
Oscar 11 24 Jul 23:24:34 23:27:49 21° 266° (W) 23:31:04 .
FO-29 24 Jul 23:37:20 23:44:13 48° 97° (E) 23:50:15 435.910
AO-73 24 Jul 23:39:44 23:41:17 12° 269° (W) 23:42:49 145.935
STRAND 1 24 Jul 23:48:56 23:50:09 11° 302° (WNW) 23:51:21 437.568
UNISAT 6 24 Jul 23:53:22 23:57:15 32° 97° (E) 00:01:04 437.425
PRISM 25 Jul 00:02:32 00:06:19 32° 98° (E) 00:10:04 437.425
ISS 25 Jul 00:04:03 00:06:53 27° 334° (NNW) 00:09:44 437.550
BEESAT 3 25 Jul 00:15:40 00:19:17 33° 245° (WSW) 00:22:50 437.485
DELFI C3 25 Jul 00:18:29 00:21:13 18° 266° (W) 00:23:59 145.870
ESTCUBE 1 25 Jul 00:23:53 00:27:42 28° 69° (ENE) 00:31:31 437.505/2401.250
TIGRISAT 25 Jul 00:37:31 00:41:51 86° 286° (WNW) 00:46:05 435.000
Tancredo 1 25 Jul 00:38:16 00:39:04 11° 350° (N) 00:39:53 437.200
AO-85 25 Jul 00:43:14 00:46:23 20° 247° (WSW) 00:49:40 145.980
nSIGHT-1 25 Jul 00:47:53 00:50:01 16° 343° (NNW) 00:52:08 .
BEESAT 2 25 Jul 00:53:52 00:57:40 40° 244° (WSW) 01:01:26 435.950
LO-87 25 Jul 00:59:37 01:03:13 64° 260° (W) 01:06:51 145.935 - 145.965
M-CUBED/EXP-1 PRIME 25 Jul 01:02:42 01:07:18 63° 106° (ESE) 01:11:55 437.505
VELOX 1 25 Jul 01:12:38 01:15:58 21° 67° (ENE) 01:19:20 145.980
FO-29 25 Jul 01:22:47 01:28:52 31° 298° (WNW) 01:34:24 435.910
RS-15 25 Jul 01:29:42 01:41:12 44° 42° (NE) 01:52:06 29.354- 29.394
UNISAT 6 25 Jul 01:30:28 01:33:46 21° 293° (WNW) 01:37:01 437.425
PRISM 25 Jul 01:38:17 01:41:22 20° 293° (WNW) 01:44:26 437.425
AIST 2D 25 Jul 01:38:20 01:41:48 62° 101° (E) 01:45:15 435.315
ISS 25 Jul 01:42:55 01:44:12 12° 353° (N) 01:45:30 437.550
DUCHIFAT 1 25 Jul 01:58:09 02:01:55 32° 97° (E) 02:05:39 145.980
POLYITAN 1 25 Jul 01:59:38 02:03:39 42° 99° (E) 02:07:37 437.675
ESTCUBE 1 25 Jul 02:00:42 02:04:26 26° 265° (W) 02:08:12 437.505/2401.250
O/OREOS (USA 219) 25 Jul 02:03:28 02:06:46 20° 57° (ENE) 02:10:03 437.305
UKube-1 25 Jul 02:04:32 02:07:08 16° 64° (ENE) 02:09:45 .
SPROUT 25 Jul 02:06:35 02:10:53 86° 257° (WSW) 02:15:13 437.525
50 SAT 25 Jul 02:07:59 02:10:58 29° 71° (ENE) 02:13:57 437.505
QB50P2 25 Jul 02:12:31 02:16:44 68° 101° (E) 02:20:54 145.880/145.840
Tancredo 1 25 Jul 02:14:47 02:15:33 11° 10° (N) 02:16:18 437.200
EO-79 25 Jul 02:24:45 02:28:59 86° 104° (ESE) 02:33:10 145.935-145.965
NANOSAT C BR1 25 Jul 02:25:08 02:29:20 78° 101° (E) 02:33:30 145.865
nSIGHT-1 25 Jul 02:26:26 02:27:28 11° 3° (N) 02:28:29 .
BUGSAT 1 25 Jul 02:29:37 02:32:39 20° 94° (E) 02:35:39 437.445
M-CUBED/EXP-1 PRIME 25 Jul 02:38:30 02:41:12 16° 301° (WNW) 02:43:56 437.505
VELOX 1 25 Jul 02:48:09 02:52:11 35° 262° (W) 02:56:16 145.980
DX 1 25 Jul 02:54:44 02:59:04 84° 78° (ENE) 03:03:29 434.975-435.025
ISS 25 Jul 03:19:53 03:21:46 14° 14° (NNE) 03:23:39 437.550
BEESAT 25 Jul 03:26:40 03:29:04 14° 62° (ENE) 03:31:30 436.000
DUCHIFAT 1 25 Jul 03:34:17 03:37:22 20° 293° (WNW) 03:40:26 145.980
POLYITAN 1 25 Jul 03:36:30 03:39:04 16° 295° (WNW) 03:41:38 437.675
UKube-1 25 Jul 03:38:37 03:42:46 46° 260° (W) 03:46:57 .
ITUPSAT 1 25 Jul 03:38:40 03:41:52 18° 64° (ENE) 03:45:04 437.325
50 SAT 25 Jul 03:41:54 03:43:45 14° 267° (W) 03:45:36 437.505
O/OREOS (USA 219) 25 Jul 03:42:07 03:46:20 41° 254° (WSW) 03:50:33 437.305
RS-15 25 Jul 03:42:30 03:54:17 64° 247° (WSW) 04:05:27 29.354- 29.394
Tancredo 1 25 Jul 03:48:59 03:51:40 31° 29° (NNE) 03:54:21 437.200
QB50P2 25 Jul 03:50:55 03:51:55 11° 298° (WNW) 03:52:55 145.880/145.840
nSIGHT-1 25 Jul 04:02:13 04:04:48 22° 23° (NNE) 04:07:23 .
Oscar 19 25 Jul 04:02:55 04:08:07 81° 104° (ESE) 04:13:17 437.125/150
BUGSAT 1 25 Jul 04:04:26 04:08:03 30° 290° (WNW) 04:11:36 437.445
Gurwin Techsat 1B 25 Jul 04:25:24 04:30:45 83° 104° (ESE) 04:36:04 435.225
MOZHAYETS 4 25 Jul 04:29:13 04:33:28 39° 71° (ENE) 04:37:44
ISS 25 Jul 04:55:39 04:58:51 50° 34° (NNE) 05:02:02 437.550
BEESAT 25 Jul 05:01:31 05:06:16 66° 258° (WSW) 05:11:03 436.000
CUBESAT XI-V 25 Jul 05:03:58 05:07:05 18° 65° (ENE) 05:10:13 437.345
ITUPSAT 1 25 Jul 05:14:39 05:19:17 50° 260° (W) 05:23:57 437.325
KKS-1 25 Jul 05:15:30 05:17:44 14° 63° (ENE) 05:19:58 437.445
Tancredo 1 25 Jul 05:24:31 05:27:00 24° 225° (SW) 05:29:29 437.200
PCSat 25 Jul 05:34:12 05:36:47 14° 103° (ESE) 05:39:24 145.827
nSIGHT-1 25 Jul 05:38:15 05:41:25 58° 221° (SW) 05:44:35 .
AO-7 25 Jul 05:43:44 05:51:54 54° 102° (ESE) 05:59:59 .
Oscar 19 25 Jul 05:44:24 05:46:44 13° 300° (WNW) 05:49:03 437.125/150
STARS 25 Jul 05:46:51 05:48:37 12° 62° (ENE) 05:50:22 437.465
ITAMSAT 1 25 Jul 05:53:34 05:58:45 65° 102° (ESE) 06:03:54 435.822/435.867
RS-15 25 Jul 06:00:34 06:03:59 12° 267° (W) 06:07:23 29.354- 29.394
MOZHAYETS 4 25 Jul 06:07:29 06:10:45 19° 267° (W) 06:14:02
Gurwin Techsat 1B 25 Jul 06:07:29 06:09:58 13° 300° (WNW) 06:12:26 435.225
ISS 25 Jul 06:32:51 06:35:03 17° 229° (SW) 06:37:15 437.550
CUBESAT XI-V 25 Jul 06:39:45 06:44:06 44° 261° (W) 06:48:31 437.345
DOVE 4 25 Jul 06:40:12 06:42:38 13° 88° (E) 06:45:00 437.250
KKS-1 25 Jul 06:49:21 06:53:45 60° 259° (WSW) 06:58:12 437.445
YUBILEINY 25 Jul 07:11:54 07:20:15 45° 75° (ENE) 07:28:28 435.215
PCSat 25 Jul 07:14:03 07:19:27 77° 298° (WNW) 07:24:56 145.827
STARS 25 Jul 07:19:57 07:24:22 67° 259° (WSW) 07:28:48 437.465
ITAMSAT 1 25 Jul 07:34:30 07:37:39 16° 299° (WNW) 07:40:47 435.822/435.867
AO-7 25 Jul 07:36:59 07:44:18 36° 301° (WNW) 07:51:37 .
XW-2D 25 Jul 07:38:20 07:40:31 15° 93° (E) 07:42:41 145.860 - 145.880
CUTE-I 25 Jul 07:40:02 07:43:27 17° 92° (E) 07:46:48 437.470
SO-50 25 Jul 07:43:39 07:47:50 37° 116° (ESE) 07:52:01 436.795
STRAND 1 25 Jul 07:45:16 07:48:21 16° 62° (ENE) 07:51:27 437.568
XW-2B 25 Jul 07:47:57 07:50:38 18° 94° (E) 07:53:19 145.730 - 145.750
XW-2C 25 Jul 08:04:45 08:08:06 30° 97° (E) 08:11:26 145.795 - 145.815
NUDT-PHONESAT 25 Jul 08:13:40 08:16:52 28° 96° (E) 08:20:04 437.300
DOVE 4 25 Jul 08:15:34 08:20:51 73° 285° (WNW) 08:25:54 437.250
KAITUO 1B 25 Jul 08:27:23 08:30:57 43° 99° (E) 08:34:32 145.475/437.950
LilacSat-2 25 Jul 08:27:30 08:31:16 65° 100° (E) 08:35:02 437.200
XW-2F 25 Jul 08:42:31 08:46:16 89° 301° (WNW) 08:50:01 145.980 - 146.000
HO-68 25 Jul 09:00:45 09:07:01 32° 96° (E) 09:13:14 435.675
PCSat 25 Jul 09:01:00 09:03:47 14° 319° (NW) 09:06:34 145.827
YUBILEINY 25 Jul 09:08:59 09:16:49 38° 274° (W) 09:24:36 435.215
XW-2D 25 Jul 09:11:23 09:14:48 34° 288° (WNW) 09:18:14 145.860 - 145.880
CUTE-I 25 Jul 09:18:34 09:23:51 59° 287° (WNW) 09:29:04 437.470
XW-2B 25 Jul 09:21:36 09:24:50 27° 289° (WNW) 09:28:02 145.730 - 145.750
STRAND 1 25 Jul 09:21:52 09:26:58 64° 258° (WSW) 09:32:06 437.568
SO-50 25 Jul 09:24:36 09:28:23 25° 313° (NW) 09:32:10 436.795
CUBEBUG 2 25 Jul 09:32:32 09:36:06 26° 95° (E) 09:39:35 437.445
XW-2A 25 Jul 09:34:53 09:37:52 29° 97° (E) 09:40:49 145.665 - 145.685
XW-2C 25 Jul 09:39:32 09:42:02 17° 292° (WNW) 09:44:34 145.795 - 145.815
NUDT-PHONESAT 25 Jul 09:48:03 09:50:34 18° 292° (WNW) 09:53:03 437.300
FO-29 25 Jul 09:48:07 09:54:04 25° 60° (ENE) 10:00:08 435.910
AO-73 25 Jul 09:51:18 09:52:22 11° 90° (E) 09:53:26 145.935
CUTE 1.7 + AOD 2 25 Jul 09:54:24 09:58:40 83° 282° (WNW) 10:02:55 437.475
KAITUO 1B 25 Jul 10:03:01 10:04:33 12° 294° (WNW) 10:06:07 145.475/437.950
SEEDS 25 Jul 10:06:58 10:11:12 85° 102° (ESE) 10:15:26 437.485
UWE-3 25 Jul 10:30:28 10:34:40 70° 102° (ESE) 10:38:46 435.000/436.395/437.385
ZACube-1 25 Jul 10:44:34 10:48:38 53° 100° (E) 10:52:40 437.345
HO-68 25 Jul 10:48:06 10:54:53 48° 293° (WNW) 11:01:39 435.675
AAUSAT CUBESAT 2 25 Jul 10:51:05 10:55:13 66° 285° (WNW) 10:59:22 437.432
UNISAT 6 25 Jul 10:51:18 10:55:16 29° 69° (ENE) 10:59:12 437.425
PRISM 25 Jul 10:51:31 10:54:41 22° 67° (ENE) 10:57:52 437.425
XW-2A 25 Jul 11:08:38 11:10:19 13° 293° (WNW) 11:12:00 145.665 - 145.685
CUBEBUG 2 25 Jul 11:09:10 11:12:38 25° 292° (WNW) 11:16:01 437.445
Oscar 11 25 Jul 11:10:49 11:15:09 73° 102° (ESE) 11:19:27 .
AO-73 25 Jul 11:24:54 11:28:57 56° 286° (WNW) 11:32:58 145.935
FO-29 25 Jul 11:30:42 11:38:16 74° 258° (WSW) 11:46:12 435.910
TIGRISAT 25 Jul 11:34:48 11:39:26 76° 76° (ENE) 11:44:01 435.000
M-CUBED/EXP-1 PRIME 25 Jul 11:48:12 11:51:46 64° 69° (ENE) 11:55:40 437.505
DELFI C3 25 Jul 11:54:23 11:58:20 55° 100° (E) 12:02:15 145.870
AIST 2D 25 Jul 12:12:38 12:15:13 20° 70° (ENE) 12:17:48 435.315
